Temp
37 38 39 40 41 42 44 44 45 45 45 46 46 46 45 46 44 44 44 43 42 41 39 38 38 38 38 39 39 40 40 39 40 40 40 40 40 40 39 41 41 42
34 35 36 37 37 37 38 39 40 42 43 43 44 45 45 45 44 43 43 42 41 40 38 37 37 37 37 38 38 38 39 40 39 40 40 40 41 41 40 40 40 41
31 32 33 33 34 34 35 36 37 37 37 37 38 39 39 42 43 43 43 41 40 39 37 37 36 36 36 36 37 37 39 40 40 41 41 41 42 42 42 41 41 41
29 30 30 31 32 32 33 34 34 35 35 34 34 34 36 36 39 40 41 39 40 39 38 37 35 35 34 34 35 36 38 39 40 41 40 41 42 41 41 41 39 39
28 28 29 29 30 31 31 30 30 31 32 32 32 33 33 33 33 33 34 37 38 38 37 36 35 35 35 34 34 35 36 37 38 38 38 38 39 38 37 37 37 36
27 28 28 27 28 28 28 28 28 28 29 29 29 29 29 29 29 29 30 31 33 34 34 35 34 34 34 34 33 34 35 35 36 36 35 34 35 36 35 35 35 35
25 25 26 27 27 27 27 27 27 27 27 27 28 27 27 27 27 27 28 29 29 30 30 30 31 32 32 32 32 32 33 33 33 32 32 33 33 33 33 32 32 32
24 25 25 25 25 25 25 25 25 25 25 26 26 27 27 27 27 27 27 28 28 28 28 29 28 28 30 31 31 32 31 32 31 31 31 31 32 31 33 32 32 31
23 23 23 23 23 23 23 23 24 25 25 25 25 26 27 27 26 27 28 28 28 27 28 28 28 29 30 30 30 31 32 32 32 32 32 32 32 32 33 33 31 30
21 21 21 21 21 22 21 22 22 24 24 24 24 25 25 26 26 27 27 27 27 27 28 28 28 28 29 30 30 30 30 30 32 32 32 32 32 32 32 32 31 31
21 21 20 20 20 21 20 21 21 22 23 22 22 23 24 25 25 26 25 25 25 25 25 26 26 27 28 29 30 30 31 31 31 30 31 32 32 33 32 32 32 31
20 20 19 19 19 20 20 20 21 21 21 21 21 21 22 23 23 23 24 23 24 24 24 24 25 25 26 27 28 29 29 29 28 29 30 30 30 31 31 31 31 31
19 19 18 18 18 19 19 19 19 20 20 19 20 20 20 20 21 21 22 22 23 22 22 22 23 23 24 25 26 27 27 26 27 29 29 29 29 29 29 29 29 29
18 18 18 18 18 18 18 18 18 18 18 19 18 18 19 19 19 19 20 20 21 21 21 22 22 22 23 23 24 25 25 25 26 26 26 27 27 27 27 26 26 26
18 18 18 18 17 16 16 16 16 16 17 17 17 17 18 18 18 18 17 17 18 18 19 20 19 19 20 19 21 23 24 24 25 25 25 25 25 26 26 24 24 25
18 17 17 17 16 15 15 15 15 15 15 15 15 16 16 17 16 17 15 14 15 15 15 16 16 18 18 19 22 22 23 23 24 24 24 24 23 23 24 24 22 23
17 17 17 15 15 15 15 14 14 14 14 14 13 14 14 13 14 13 13 13 13 12 12 13 15 16 17 20 21 23 23 22 23 23 24 23 23 23 22 24 24 23
16 16 15 14 14 14 13 13 13 12 11 11 11 12 12 12 12 12 12 11 11 10 10 11 13 14 17 19 21 22 23 23 23 23 23 23 23 22 23 23 23 23
15 15 14 13 13 12 12 12 10 9 9 8 9 10 10 9 10 11 9 10 9 8 8 10 11 13 15 18 20 22 23 23 23 23 22 22 22 22 21 21 22 22
14 14 12 12 11 11 10 8 8 7 8 8 9 9 8 8 9 9 8 7 7 7 8 9 9 10 14 17 19 21 21 21 21 19 20 20 20 21 21 21 21 21
13 12 11 10 10 10 8 7 7 6 6 7 8 7 7 7 8 6 5 5 5 6 6 6 7 10 14 17 18 18 19 20 19 19 19 19 20 20 19 19 19 19
12 11 10 8 9 7 6 6 6 5 4 6 6 7 7 7 7 6 4 4 5 4 4 4 6 10 13 15 16 16 18 17 17 17 17 18 18 18 18 19 20 20
11 10 8 7 8 6 4 5 4 4 5 6 4 5 5 5 4 4 5 4 3 3 3 3 5 7 11 13 14 16 16 15 15 16 17 16 16 17 17 18 18 18
10 8 7 6 5 4 4 4 4 4 5 5 3 3 3 3 4 4 4 5 4 3 3 3 4 6 8 10 13 14 15 13 14 15 14 15 15 16 16 16 17 17
9 8 6 5 4 3 3 2 3 3 4 4 4 3 2 4 4 3 3 3 3 3 4 2 3 4 6 9 12 13 13 13 14 14 12 12 13 13 15 15 15 16
8 6 5 3 2 2 2 1 3 2 2 2 2 3 3 3 3 2 0 1 3 3 2 2 2 3 5 8 11 12 13 13 13 11 9 10 11 12 12 13 13 14
MSLP
1020.39 1020.23 1020.11 1019.95 1020.03 1019.87 1019.67 1019.59 1019.55 1019.67 1019.67 1019.75 1019.71 1019.79 1019.99 1020.11 1020.51 1020.63 1020.79 1020.95 1021.23 1021.51 1021.71 1021.87 1022.03 1022.19 1022.31 1022.43 1022.43 1022.43 1022.51 1022.59 1022.79 1022.91 1023.07 1023.03 1023.07 1023.15 1023.19 1023.23 1023.35 1023.43
1021.35 1021.23 1021.11 1020.99 1020.99 1020.99 1020.91 1020.79 1020.63 1020.39 1020.35 1020.39 1020.35 1020.27 1020.27 1020.47 1020.67 1020.83 1020.95 1021.11 1021.35 1021.55 1021.79 1022.03 1022.19 1022.31 1022.39 1022.47 1022.51 1022.55 1022.59 1022.63 1022.67 1022.79 1022.87 1022.79 1022.79 1022.87 1022.99 1023.07 1023.23 1023.31
1022.35 1022.15 1022.07 1021.99 1021.99 1021.91 1021.75 1021.63 1021.55 1021.51 1021.51 1021.63 1021.59 1021.47 1021.27 1020.95 1020.79 1020.87 1020.99 1021.19 1021.39 1021.59 1021.83 1022.03 1022.27 1022.43 1022.55 1022.63 1022.67 1022.71 1022.63 1022.51 1022.47 1022.47 1022.55 1022.51 1022.47 1022.55 1022.67 1022.91 1023.03 1023.15
1023.27 1023.23 1023.11 1023.03 1022.87 1022.71 1022.55 1022.39 1022.31 1022.27 1022.31 1022.27 1022.47 1022.39 1022.15 1021.95 1021.59 1021.31 1021.27 1021.39 1021.47 1021.59 1021.79 1022.03 1022.23 1022.39 1022.55 1022.67 1022.75 1022.75 1022.59 1022.47 1022.35 1022.31 1022.43 1022.43 1022.47 1022.55 1022.67 1022.83 1023.03 1023.19
1024.15 1024.03 1023.99 1023.91 1023.75 1023.55 1023.39 1023.31 1023.31 1023.27 1023.19 1023.23 1023.15 1023.03 1022.87 1022.67 1022.51 1022.35 1022.15 1021.83 1021.67 1021.75 1021.83 1022.03 1022.23 1022.39 1022.43 1022.51 1022.55 1022.55 1022.47 1022.43 1022.43 1022.51 1022.51 1022.55 1022.55 1022.67 1022.83 1022.95 1023.07 1023.19
1024.83 1024.79 1024.75 1024.67 1024.59 1024.39 1024.23 1024.19 1024.23 1024.15 1024.07 1023.99 1023.99 1023.91 1023.75 1023.55 1023.35 1023.15 1022.91 1022.63 1022.35 1022.23 1022.15 1022.19 1022.31 1022.39 1022.43 1022.51 1022.55 1022.47 1022.39 1022.35 1022.35 1022.47 1022.59 1022.67 1022.75 1022.75 1022.87 1022.95 1023.07 1023.11
1025.71 1025.51 1025.43 1025.35 1025.27 1025.15 1025.03 1024.95 1024.91 1024.83 1024.79 1024.75 1024.59 1024.47 1024.39 1024.15 1023.95 1023.83 1023.55 1023.27 1023.07 1022.91 1022.83 1022.79 1022.67 1022.59 1022.51 1022.55 1022.51 1022.47 1022.43 1022.47 1022.55 1022.63 1022.71 1022.75 1022.75 1022.79 1022.87 1022.99 1023.03 1023.03
1026.39 1026.27 1026.19 1026.11 1025.99 1025.87 1025.79 1025.67 1025.59 1025.51 1025.47 1025.27 1025.03 1024.91 1024.79 1024.63 1024.47 1024.27 1024.03 1023.79 1023.59 1023.47 1023.35 1023.23 1023.19 1023.03 1022.87 1022.63 1022.55 1022.51 1022.47 1022.47 1022.55 1022.63 1022.71 1022.71 1022.71 1022.71 1022.67 1022.79 1022.87 1022.91
1027.03 1026.95 1026.87 1026.71 1026.63 1026.59 1026.55 1026.43 1026.23 1026.11 1025.95 1025.75 1025.59 1025.39 1025.19 1025.07 1024.91 1024.67 1024.43 1024.15 1023.99 1023.87 1023.71 1023.59 1023.47 1023.31 1023.15 1022.99 1022.79 1022.59 1022.47 1022.39 1022.39 1022.43 1022.43 1022.47 1022.43 1022.39 1022.43 1022.47 1022.63 1022.71
1027.59 1027.55 1027.43 1027.31 1027.23 1027.23 1027.23 1027.07 1026.87 1026.63 1026.51 1026.35 1026.11 1025.87 1025.71 1025.51 1025.35 1025.11 1024.87 1024.63 1024.43 1024.23 1024.03 1023.87 1023.75 1023.55 1023.35 1023.19 1023.07 1022.95 1022.79 1022.59 1022.39 1022.27 1022.27 1022.23 1022.23 1022.19 1022.23 1022.23 1022.27 1022.39
1028.07 1027.99 1027.95 1027.91 1027.83 1027.75 1027.75 1027.55 1027.39 1027.19 1026.99 1026.91 1026.67 1026.39 1026.15 1025.91 1025.71 1025.55 1025.39 1025.15 1024.99 1024.83 1024.63 1024.43 1024.23 1023.99 1023.75 1023.51 1023.27 1023.11 1022.95 1022.79 1022.71 1022.55 1022.31 1022.15 1022.03 1021.99 1021.99 1022.03 1022.07 1022.11
1028.47 1028.43 1028.43 1028.43 1028.35 1028.23 1028.15 1028.03 1027.87 1027.71 1027.55 1027.35 1027.19 1026.95 1026.67 1026.43 1026.23 1025.99 1025.83 1025.71 1025.51 1025.35 1025.15 1024.91 1024.71 1024.47 1024.23 1023.99 1023.71 1023.43 1023.27 1023.11 1022.95 1022.75 1022.55 1022.43 1022.31 1022.19 1022.11 1022.07 1022.03 1021.99
1028.87 1028.91 1028.91 1028.87 1028.75 1028.71 1028.59 1028.47 1028.31 1028.15 1027.99 1027.83 1027.67 1027.47 1027.19 1026.95 1026.79 1026.55 1026.31 1026.15 1025.91 1025.79 1025.55 1025.35 1025.11 1024.83 1024.63 1024.39 1024.07 1023.75 1023.55 1023.43 1023.15 1022.87 1022.71 1022.55 1022.51 1022.43 1022.39 1022.31 1022.27 1022.23
1029.27 1029.27 1029.23 1029.27 1029.23 1029.11 1028.99 1028.87 1028.75 1028.59 1028.47 1028.27 1028.11 1027.91 1027.63 1027.47 1027.31 1027.11 1026.91 1026.67 1026.43 1026.23 1025.99 1025.71 1025.47 1025.15 1024.91 1024.75 1024.43 1024.07 1023.83 1023.59 1023.31 1023.15 1022.95 1022.75 1022.67 1022.59 1022.63 1022.67 1022.67 1022.63
1029.63 1029.63 1029.59 1029.55 1029.59 1029.51 1029.39 1029.31 1029.19 1029.07 1028.91 1028.75 1028.55 1028.35 1028.15 1027.91 1027.79 1027.55 1027.39 1027.19 1026.91 1026.71 1026.47 1026.15 1025.87 1025.55 1025.39 1025.27 1024.79 1024.27 1024.03 1023.83 1023.55 1023.39 1023.23 1023.03 1022.91 1022.75 1022.75 1022.87 1022.87 1022.79
1029.83 1029.95 1029.87 1029.87 1029.87 1029.79 1029.71 1029.63 1029.51 1029.43 1029.23 1029.11 1028.91 1028.67 1028.47 1028.23 1028.07 1027.87 1027.75 1027.55 1027.35 1027.15 1026.91 1026.59 1026.27 1025.91 1025.83 1025.47 1024.95 1024.59 1024.23 1023.91 1023.71 1023.51 1023.31 1023.23 1023.11 1022.99 1022.83 1022.87 1022.99 1022.95
1030.03 1030.11 1030.07 1030.07 1030.07 1030.03 1029.99 1029.95 1029.79 1029.75 1029.59 1029.43 1029.23 1028.99 1028.79 1028.55 1028.35 1028.15 1028.03 1027.79 1027.67 1027.47 1027.27 1026.91 1026.55 1026.23 1025.95 1025.47 1025.03 1024.63 1024.31 1024.03 1023.71 1023.47 1023.31 1023.15 1023.07 1022.99 1022.91 1022.71 1022.71 1022.87
1030.23 1030.27 1030.27 1030.27 1030.23 1030.27 1030.23 1030.19 1030.07 1030.03 1029.87 1029.71 1029.55 1029.23 1028.99 1028.87 1028.63 1028.35 1028.35 1028.15 1027.99 1027.83 1027.55 1027.15 1026.75 1026.43 1026.07 1025.59 1025.11 1024.63 1024.27 1023.95 1023.63 1023.39 1023.19 1023.07 1022.91 1022.87 1022.75 1022.63 1022.63 1022.59
1030.51 1030.51 1030.51 1030.51 1030.47 1030.51 1030.47 1030.39 1030.31 1030.27 1030.07 1029.95 1029.75 1029.43 1029.31 1029.15 1028.75 1028.63 1028.59 1028.47 1028.35 1028.07 1027.79 1027.35 1027.03 1026.67 1026.27 1025.71 1025.11 1024.55 1024.15 1023.83 1023.51 1023.27 1023.15 1023.03 1022.87 1022.87 1022.83 1022.75 1022.63 1022.51
1030.63 1030.67 1030.75 1030.75 1030.71 1030.71 1030.67 1030.63 1030.51 1030.43 1030.27 1030.11 1029.79 1029.59 1029.47 1029.23 1028.95 1028.79 1028.79 1028.79 1028.55 1028.31 1027.91 1027.59 1027.31 1026.91 1026.39 1025.71 1025.11 1024.67 1024.35 1024.07 1023.75 1023.67 1023.51 1023.23 1023.07 1022.91 1022.75 1022.71 1022.63 1022.51
1030.75 1030.79 1030.87 1030.87 1030.83 1030.79 1030.83 1030.79 1030.59 1030.59 1030.43 1030.15 1029.83 1029.71 1029.51 1029.23 1028.91 1028.91 1028.95 1028.83 1028.67 1028.43 1028.15 1027.79 1027.43 1026.99 1026.39 1025.75 1025.27 1024.99 1024.63 1024.27 1023.91 1023.71 1023.51 1023.31 1023.07 1022.99 1022.99 1022.87 1022.79 1022.63
1030.79 1030.87 1030.91 1030.99 1030.91 1030.91 1030.99 1030.87 1030.71 1030.63 1030.55 1030.19 1029.99 1029.83 1029.55 1029.27 1029.15 1029.03 1028.95 1028.79 1028.63 1028.47 1028.23 1027.95 1027.51 1027.03 1026.47 1025.95 1025.63 1025.27 1024.75 1024.43 1024.07 1023.83 1023.59 1023.31 1023.19 1023.11 1022.99 1022.79 1022.55 1022.43
1030.87 1030.91 1031.03 1031.03 1030.91 1031.03 1030.99 1030.87 1030.79 1030.67 1030.47 1030.15 1030.11 1029.91 1029.63 1029.47 1029.35 1029.11 1028.87 1028.75 1028.59 1028.43 1028.23 1027.95 1027.51 1027.15 1026.67 1026.23 1025.83 1025.35 1024.87 1024.59 1024.27 1023.91 1023.55 1023.35 1023.23 1023.11 1022.99 1022.79 1022.71 1022.55
1031.07 1031.11 1031.23 1031.19 1031.15 1031.27 1031.07 1030.95 1030.87 1030.67 1030.43 1030.23 1030.27 1029.99 1029.75 1029.59 1029.31 1029.03 1028.87 1028.59 1028.51 1028.39 1028.19 1027.91 1027.51 1027.11 1026.83 1026.43 1025.87 1025.35 1024.91 1024.63 1024.19 1023.79 1023.59 1023.27 1023.11 1023.11 1023.03 1022.87 1022.71 1022.59
1031.23 1031.19 1031.27 1031.31 1031.35 1031.31 1031.23 1031.23 1030.99 1030.67 1030.51 1030.35 1030.19 1029.91 1029.79 1029.39 1029.23 1029.03 1028.87 1028.63 1028.39 1028.27 1028.03 1027.87 1027.51 1027.15 1026.83 1026.43 1025.83 1025.35 1024.95 1024.51 1024.07 1023.79 1023.67 1023.67 1023.43 1023.27 1023.03 1022.83 1022.67 1022.51
1031.27 1031.31 1031.43 1031.51 1031.51 1031.35 1031.35 1031.27 1030.99 1030.79 1030.55 1030.39 1030.31 1029.95 1029.63 1029.39 1029.35 1029.15 1029.03 1028.71 1028.35 1028.11 1027.91 1027.71 1027.47 1027.15 1026.79 1026.39 1025.87 1025.43 1024.99 1024.55 1024.31 1024.15 1024.19 1023.91 1023.67 1023.39 1023.07 1022.83 1022.71 1022.59
Wind_Speed
11 10 9 9 9 8 7 5 4 3 3 3 3 2 2 0 1 3 3 3 3 3 3 3 4 5 4 5 5 5 5 6 6 6 7 7 6 7 7 8 8 6
13 12 10 9 9 9 9 9 9 8 7 7 6 4 3 2 1 1 3 3 4 4 3 2 2 3 4 4 5 6 6 7 8 5 7 9 8 8 9 9 8 8
14 14 14 13 10 11 11 10 9 9 8 8 9 8 7 6 3 2 3 4 5 5 4 4 4 3 3 3 4 5 6 7 8 8 8 8 8 7 7 7 7 9
15 14 13 13 12 12 11 11 10 9 9 9 9 8 7 7 8 5 2 3 4 4 4 4 5 5 5 5 5 5 7 6 5 4 5 5 5 6 6 5 6 6
14 14 13 12 12 12 11 12 12 11 11 10 9 10 9 9 8 8 7 5 2 2 2 3 4 4 4 5 6 6 6 6 5 5 5 6 5 5 4 5 6 6
13 13 13 12 12 12 11 12 12 11 11 11 11 9 10 9 8 8 8 7 6 5 4 2 0 2 2 3 3 5 5 5 5 6 6 6 5 5 4 5 6 7
13 13 14 12 13 13 12 12 11 11 10 9 8 10 10 10 10 9 9 8 7 7 6 5 4 3 1 2 3 3 3 3 2 3 5 5 5 6 5 5 6 6
13 12 12 12 13 13 13 12 11 11 10 10 10 9 9 10 10 9 8 9 8 8 7 6 5 4 4 3 4 5 5 4 4 5 6 6 7 7 7 6 6 7
11 12 12 12 13 12 13 12 11 11 10 10 10 9 9 9 9 10 9 9 8 8 7 7 7 6 5 4 3 4 5 6 6 7 8 8 9 9 9 7 7 8
11 11 12 12 12 11 12 12 11 10 10 10 10 8 9 9 9 10 10 9 9 9 9 8 8 7 6 5 5 4 3 4 5 6 7 8 8 8 8 7 7 7
11 11 12 12 12 10 12 11 11 10 10 10 10 10 10 9 9 9 9 9 9 9 9 9 9 8 8 7 6 6 5 4 4 3 4 5 5 6 7 7 7 8
11 11 11 11 11 10 11 11 10 10 10 9 10 10 10 9 10 9 8 9 9 9 9 8 8 8 8 8 7 7 6 6 5 4 3 3 3 4 4 5 5 6
10 10 10 10 10 10 9 10 10 10 10 10 9 9 9 9 10 9 9 9 9 9 9 9 8 8 7 8 8 8 8 7 6 6 5 4 3 3 3 3 3 4
9 8 9 9 9 9 9 9 9 9 10 9 9 9 9 9 9 9 9 8 8 8 9 8 8 8 8 8 9 8 8 7 7 6 6 5 5 4 3 3 3 3
7 7 7 7 8 8 8 9 9 9 9 9 8 8 7 8 8 8 8 8 8 8 9 8 7 6 6 8 9 9 8 7 7 7 6 6 5 4 3 2 3 3
6 6 6 6 7 7 8 8 8 8 8 9 8 8 8 8 8 7 8 8 8 9 8 7 6 5 9 16 13 9 9 7 7 6 6 6 6 6 5 2 1 1
5 6 6 7 7 7 7 8 7 7 7 8 8 7 8 8 7 7 8 8 8 8 9 7 7 6 14 16 16 16 11 8 7 7 7 6 6 6 6 6 4 2
5 6 6 6 6 7 7 7 7 7 7 8 7 7 7 7 7 7 7 8 8 8 8 8 8 11 16 17 17 16 13 9 8 7 7 6 6 6 6 5 6 6
5 5 6 6 6 6 6 7 6 7 7 7 7 7 7 7 7 7 7 8 8 9 8 8 8 13 16 17 17 15 14 11 7 7 7 7 6 6 7 7 7 7
4 5 5 5 6 6 6 6 6 6 7 7 6 6 6 7 7 7 7 7 8 8 8 8 9 12 17 17 16 15 15 14 8 6 6 6 7 7 7 7 7 7
4 5 5 5 6 6 6 6 6 6 6 7 6 6 7 6 7 7 6 7 7 8 8 8 8 15 16 16 15 16 17 14 9 7 6 7 7 6 6 6 6 6
5 5 5 5 5 6 6 6 6 7 7 7 6 6 6 6 6 6 7 7 7 8 7 8 8 14 16 16 17 17 17 10 8 8 7 7 7 7 6 6 6 6
7 7 7 8 8 7 7 6 7 7 7 6 6 7 7 7 7 7 7 8 9 8 8 8 8 11 14 16 16 16 13 8 9 7 7 7 7 7 6 6 6 7
7 7 7 7 7 7 9 8 7 6 6 6 6 8 7 7 8 8 8 8 8 8 8 9 9 10 14 14 15 15 13 9 8 7 8 8 7 6 6 6 7 11
7 7 7 7 7 7 7 7 7 8 7 7 7 7 7 7 7 7 8 8 7 8 11 10 9 9 12 13 14 14 11 8 7 6 6 6 7 8 7 7 6 6
7 7 7 7 7 7 7 7 7 8 8 8 7 7 7 7 7 8 9 8 8 8 7 7 8 8 9 13 14 14 14 8 7 6 7 8 7 7 7 7 6 6
Wind_Direction
34 33 35 37 36 28 29 25 23 22 10 2 352 4 7 42 57 188 204 209 205 207 198 179 184 196 198 203 199 201 209 207 212 210 214 210 209 209 222 219 214 221
34 36 36 39 38 32 31 28 29 29 30 23 11 354 349 331 267 212 221 222 211 214 191 177 193 205 195 198 205 210 218 219 219 204 212 211 214 216 220 216 218 220
32 32 35 35 35 32 32 33 35 33 32 27 22 17 7 360 335 234 218 212 208 200 191 191 194 198 210 224 222 224 227 225 220 212 213 219 218 218 215 212 219 219
33 33 32 33 32 31 32 34 33 32 28 28 22 12 11 8 8 1 315 223 221 207 193 188 193 193 197 208 217 230 235 238 238 230 222 226 225 227 226 222 221 216
34 33 32 31 30 32 34 36 32 28 29 26 21 16 15 12 12 13 9 1 330 258 204 197 196 205 202 205 205 217 224 230 226 224 228 231 233 226 225 219 220 221
35 35 33 32 30 29 34 35 31 28 25 24 21 15 15 13 15 13 9 10 13 18 14 8 303 221 208 214 210 223 229 225 220 211 220 225 225 218 214 217 222 226
34 33 32 31 32 32 33 30 28 25 23 19 18 22 15 16 16 13 10 11 17 22 21 14 3 335 293 248 235 232 233 236 223 207 217 224 220 222 210 214 221 223
37 35 33 33 33 31 29 27 25 24 17 14 19 17 18 16 17 14 14 18 22 21 21 22 13 7 352 310 271 252 245 236 229 225 227 230 231 232 222 211 217 224
38 37 34 35 35 31 27 24 21 20 17 15 15 12 14 17 13 14 15 19 23 22 22 22 18 13 5 359 328 293 275 263 252 244 241 239 239 241 238 221 219 224
40 36 35 34 35 31 26 24 19 18 16 14 12 12 11 11 13 11 14 16 17 17 18 16 16 13 13 18 12 359 331 293 275 257 250 249 251 251 246 236 223 227
40 38 36 34 33 28 25 22 19 17 15 12 8 8 9 10 8 11 10 12 13 11 8 8 7 4 5 6 8 7 5 358 339 308 278 270 263 257 255 248 239 235
37 35 34 33 30 27 24 21 18 17 13 12 9 3 7 9 6 8 5 5 6 4 2 1 359 360 358 356 355 357 359 356 351 349 338 314 289 280 273 269 263 256
34 33 31 28 27 25 22 19 17 14 12 11 5 4 6 4 4 4 359 0 358 359 358 355 353 355 355 351 350 350 347 345 342 341 340 342 347 337 321 299 284 275
32 29 29 27 22 21 19 18 16 12 11 7 4 4 3 2 0 357 354 356 354 353 351 349 347 351 354 353 349 344 339 335 330 332 332 329 333 346 353 353 344 329
30 25 25 23 20 18 16 13 12 8 8 3 2 360 358 355 354 354 353 350 352 349 347 343 342 345 355 344 337 337 336 328 322 317 314 316 318 316 333 8 355 2
28 25 21 20 19 15 13 8 7 3 1 0 357 356 351 351 348 349 353 348 347 344 342 338 335 336 336 332 334 333 329 323 315 304 297 294 293 294 290 276 245 321
22 18 14 16 14 10 7 5 2 0 355 355 351 349 347 348 342 344 352 346 344 340 336 332 328 328 329 332 331 329 327 318 310 304 297 289 280 275 280 281 276 269
14 12 10 7 8 2 3 357 355 355 352 350 344 343 343 340 334 341 343 340 337 333 330 325 324 324 328 328 325 324 322 315 308 300 295 291 287 282 283 285 286 285
4 7 1 1 359 357 355 350 348 349 346 344 336 335 333 329 327 334 334 335 330 327 323 321 320 318 323 322 321 321 322 320 306 301 293 288 291 289 287 290 292 292
355 351 353 349 349 347 348 343 341 341 340 330 326 326 325 320 316 324 327 325 323 320 316 315 313 312 317 317 319 324 326 325 318 336 326 308 299 289 285 289 293 291
337 334 337 339 339 340 339 336 331 330 330 326 326 322 320 315 318 320 315 313 312 314 312 310 306 309 313 315 322 325 321 320 310 311 304 292 287 301 310 302 295 291
322 319 322 328 328 330 331 325 327 326 325 321 320 313 309 310 310 309 307 306 306 305 302 302 302 309 313 317 321 320 317 315 310 305 298 292 292 293 299 297 292 289
315 312 313 316 320 324 322 322 325 323 320 318 318 308 309 307 306 306 307 311 309 306 303 300 302 305 312 317 317 315 316 310 306 296 290 290 287 289 290 291 298 300
312 305 303 309 312 315 315 317 319 313 313 318 313 304 304 300 303 307 305 308 306 302 299 302 301 304 309 312 313 313 315 311 300 293 287 285 284 292 297 295 289 288
305 302 304 309 309 306 312 311 311 312 312 311 306 300 296 297 305 305 306 306 299 300 301 299 297 303 308 313 314 316 316 305 305 303 310 323 308 299 296 294 291 290
309 307 309 310 306 306 307 306 306 311 307 308 302 300 298 304 307 309 305 301 299 298 295 294 296 298 308 312 315 315 311 311 312 310 309 306 303 297 294 292 289 286